EW4496 Weather Reports


time (UTC)temp
C
wind
direction
speed
KPH
gust
KPH
rain 1hr
cm
rain 24hr
cm
rain mn
cm
humidity
%
barometer
mb
20260905163113 18 238 0.0 6.4 0.00 0.03 0.00 66 1013.9
20260905161515 18 309 0.0 3.2 0.00 0.03 0.00 68 1013.9
20260905160041 18 332 0.0 3.2 0.00 0.03 0.00 71 1013.9
20260905154542 17 330 0.0 1.6 0.00 0.03 0.00 72 1013.9
20260905153053 17 316 0.0 3.2 0.00 0.03 0.00 74 1013.8
20260905151543 15 241 0.0 0.0 0.00 0.03 0.00 77 1013.8
20260905150055 14 233 0.0 1.6 0.00 0.03 0.00 80 1013.8
20260905144555 13 278 0.0 0.0 0.00 0.03 0.00 82 1013.7
20260905143055 12 278 0.0 1.6 0.00 0.03 0.00 84 1013.7
20260905141557 11 279 0.0 0.0 0.00 0.03 0.00 86 1013.6
20260905140110 11 279 0.0 0.0 0.00 0.03 0.00 86 1013.5
20260905134610 11 280 0.0 0.0 0.00 0.03 0.00 86 1013.5
20260905133109 11 280 0.0 0.0 0.00 0.03 0.00 86 1013.4
20260905131612 11 200 0.0 1.6 0.00 0.03 0.00 87 1013.3
20260905130121 11 203 0.0 1.6 0.00 0.03 0.00 86 1013.3
20260905124610 11 203 0.0 1.6 0.00 0.03 0.00 86 1013.2
20260905123110 11 228 0.0 1.6 0.00 0.03 0.00 86 1013.2
20260905121609 11 228 0.0 0.0 0.00 0.03 0.00 85 1013.3
20260905120106 11 229 0.0 3.2 0.00 0.03 0.00 85 1013.3
20260905114555 11 231 0.0 3.2 0.00 0.03 0.00 85 1013.2
20260905113054 11 235 0.0 0.0 0.00 0.03 0.00 85 1013.2
20260905111609 11 236 0.0 0.0 0.00 0.03 0.00 85 1013.4
20260905110058 11 236 0.0 0.0 0.00 0.03 0.00 84 1013.5
20260905104554 11 237 0.0 0.0 0.00 0.03 0.00 83 1013.5
20260905103055 11 247 0.0 0.0 0.00 0.03 0.00 83 1013.6
20260905101554 12 266 0.0 0.0 0.00 0.03 0.00 83 1013.6
20260905100018 12 266 0.0 0.0 0.00 0.03 0.00 82 1013.7
20260905094539 12 266 0.0 0.0 0.00 0.03 0.00 81 1013.6
20260905093041 13 266 0.0 0.0 0.00 0.03 0.00 81 1013.7
20260905091539 13 266 0.0 0.0 0.00 0.03 0.00 81 1013.6
20260905090039 13 267 0.0 0.0 0.00 0.03 0.00 81 1013.6
20260905084538 13 287 0.0 0.0 0.00 0.03 0.00 80 1013.7
20260905083038 13 290 0.0 0.0 0.00 0.03 0.00 78 1013.7
20260905081539 13 243 0.0 0.0 0.00 0.03 0.00 77 1013.7
20260905080040 14 240 0.0 0.0 0.00 0.05 0.00 76 1013.6
20260905074545 14 285 0.0 1.6 0.00 0.05 0.00 76 1013.5
20260905073055 15 320 0.0 0.0 0.00 0.05 0.00 75 1013.4
20260905071544 15 214 0.0 3.2 0.00 0.05 0.00 74 1013.4
20260905070040 15 243 0.0 4.8 0.00 0.05 0.05 74 1013.3
20260905064538 15 243 0.0 6.4 0.00 0.05 0.05 75 1013.3
20260905063038 15 217 0.0 1.6 0.00 0.05 0.05 73 1013.3
20260905061553 15 230 0.0 0.0 0.00 0.05 0.05 71 1013.3
20260905060053 15 231 0.0 3.2 0.00 0.05 0.05 70 1013.2
20260905054553 16 200 0.0 1.6 0.00 0.05 0.05 68 1013.3
20260905053135 16 328 0.0 0.0 0.00 0.05 0.05 68 1013.2
20260905051553 16 329 0.0 0.0 0.00 0.05 0.05 67 1013.1
20260905050052 16 329 0.0 0.0 0.00 0.05 0.05 67 1013.2
20260905044553 16 329 0.0 0.0 0.00 0.05 0.05 68 1013.2
20260905043052 17 329 0.0 0.0 0.00 0.05 0.05 64 1013.1
20260905041554 18 329 0.0 0.0 0.00 0.05 0.05 61 1013.0
20260905040052 18 341 0.0 1.6 0.00 0.05 0.05 59 1012.8
20260905034553 19 347 0.0 8.0 0.00 0.05 0.05 57 1012.7
20260905033059 20 326 0.0 9.7 0.00 0.05 0.05 55 1012.5
20260905031554 20 348 0.0 12.9 0.00 0.05 0.05 53 1012.4
20260905030052 20 295 0.0 0.0 0.00 0.05 0.05 41 1012.2
20260905024602 21 295 0.0 0.0 0.00 0.05 0.05 38 1012.0
20260905023055 22 295 0.0 0.0 0.00 0.05 0.05 35 1012.0
20260905021552 23 312 0.0 3.2 0.00 0.05 0.05 31 1012.0
20260905020104 25 354 0.0 1.6 0.00 0.05 0.05 29 1012.0
20260905014553 25 336 0.0 6.4 0.00 0.05 0.05 29 1012.0
20260905013021 25 244 0.0 11.3 0.00 0.05 0.05 31 1011.9
20260905011521 25 300 0.0 14.5 0.00 0.05 0.05 33 1011.8
20260905010024 25 329 0.0 8.0 0.00 0.05 0.05 36 1011.9
20260905004524 25 347 3.2 9.7 0.00 0.05 0.05 36 1011.8
20260905003021 26 255 0.0 12.9 0.00 0.05 0.05 37 1011.8
20260905001521 26 221 1.6 12.9 0.00 0.05 0.05 36 1011.8
20260905000021 26 297 0.0 6.4 0.00 0.05 0.05 36 1011.9
20260904234521 26 200 1.6 9.7 0.00 0.05 0.05 38 1012.0
20260904233021 26 311 0.0 9.7 0.00 0.05 0.05 38 1012.1
20260904231532 26 1 4.8 11.3 0.00 0.05 0.05 38 1012.1
20260904230023 26 262 4.8 12.9 0.00 0.05 0.05 39 1012.2
20260904224520 26 5 3.2 12.9 0.00 0.05 0.05 38 1012.4
20260904223005 26 302 0.0 14.5 0.00 0.05 0.05 39 1012.5
20260904221505 25 22 0.0 8.0 0.00 0.05 0.05 41 1012.4
20260904220021 25 1 1.6 17.7 0.00 0.05 0.05 42 1012.5
20260904214532 25 326 3.2 9.7 0.00 0.05 0.05 40 1012.5
20260904213005 25 168 8.0 17.7 0.00 0.05 0.05 41 1012.5
20260904211506 25 338 0.0 8.0 0.00 0.05 0.05 42 1012.6
20260904210043 25 330 0.0 14.5 0.00 0.05 0.05 42 1012.6
20260904180104 20 185 3.2 11.3 0.00 0.05 0.05 68 1013.5
20260904174604 19 158 4.8 11.3 0.00 0.05 0.05 70 1013.6
20260904173128 18 195 0.0 9.7 0.03 0.05 0.05 76 1013.6
20260904171611 18 195 0.0 6.4 0.03 0.05 0.05 78 1013.4
20260904170108 18 276 0.0 9.7 0.03 0.05 0.05 78 1013.3
20260904164504 17 200 1.6 8.0 0.00 0.03 0.03 80 1013.2